8OJDFAOP Weather Reports


Display with metric or nautical units.
time (UTC)temp
F
wind
direction
speed
MPH
gust
MPH
rain 1hr
in
rain 24hr
in
rain mn
in
humidity
%
barometer
mb
20260504081519 45 63 2.0 5.0 0.00 0.00 0.00 52 1011.4
20260504050004 50 298 1.0 6.0 0.00 0.00 0.00 45 1010.1
20260504044511 51 283 2.0 4.0 0.00 0.00 0.00 44 1010.2
20260504043005 52 299 2.0 4.0 0.00 0.00 0.00 43 1010.1
20260504041510 53 280 2.0 4.0 0.00 0.00 0.00 40 1010.1
20260504040010 55 253 0.0 4.0 0.00 0.00 0.00 37 1010.0
20260504034516 55 255 1.0 3.0 0.00 0.00 0.00 36 1009.7
20260504033003 53 9 0.0 1.0 0.00 0.00 0.00 39 1009.6
20260504031507 56 35 1.0 3.0 0.00 0.00 0.00 35 1009.5
20260504030010 58 294 1.0 3.0 0.00 0.00 0.00 34 1009.3
20260504024514 58 274 1.0 4.0 0.00 0.00 0.00 34 1009.2
20260504023019 62 314 1.0 8.0 0.00 0.00 0.00 30 1009.2
20260504021509 64 4 1.0 4.0 0.00 0.00 0.00 29 1009.3
20260504020005 67 335 4.0 12.0 0.00 0.00 0.00 26 1009.1
20260504014523 67 5 4.0 8.0 0.00 0.00 0.00 26 1009.3
20260504013016 68 24 4.0 11.0 0.00 0.00 0.00 25 1009.3
20260504011518 69 28 5.0 15.0 0.00 0.00 0.00 24 1009.4
20260504010004 70 29 7.0 12.0 0.00 0.00 0.00 24 1009.6
20260504004508 70 5 7.0 15.0 0.00 0.00 0.00 26 1009.4
20260504003012 72 15 6.0 13.0 0.00 0.00 0.00 23 1009.6
20260504001522 72 360 7.0 12.0 0.00 0.00 0.00 22 1009.7
20260504000022 72 7 6.0 12.0 0.00 0.00 0.00 24 1009.8
20260503234506 72 338 4.0 12.0 0.00 0.00 0.00 24 1009.8
20260503233009 71 14 4.0 8.0 0.00 0.00 0.00 25 1009.7
20260503231524 70 333 4.0 9.0 0.00 0.00 0.00 25 1009.8
20260503230026 70 5 4.0 8.0 0.00 0.00 0.00 26 1009.9
20260503224523 71 15 4.0 12.0 0.00 0.00 0.00 25 1010.0
20260503223007 70 8 5.0 11.0 0.00 0.00 0.00 26 1010.0
20260503221512 71 299 8.0 15.0 0.00 0.00 0.00 22 1010.1
20260503220015 72 289 11.0 19.0 0.00 0.00 0.00 21 1010.4
20260503214520 73 295 10.0 19.0 0.00 0.00 0.00 23 1010.6
20260503213029 73 273 12.0 21.0 0.00 0.00 0.00 21 1010.8
20260503211509 72 278 11.0 20.0 0.00 0.00 0.00 22 1010.8
20260503210016 72 239 8.0 15.0 0.00 0.00 0.00 21 1011.1
20260503204518 72 267 6.0 17.0 0.00 0.00 0.00 23 1011.6
20260503203024 71 279 9.0 16.0 0.00 0.00 0.00 21 1011.8
20260503201526 71 221 10.0 18.0 0.00 0.00 0.00 20 1012.0
20260503200026 70 245 10.0 16.0 0.00 0.00 0.00 22 1012.2
20260503194516 70 269 12.0 19.0 0.00 0.00 0.00 23 1012.5
20260503193023 69 245 9.0 19.0 0.00 0.00 0.00 24 1012.6
20260503191524 69 257 10.0 18.0 0.00 0.00 0.00 25 1012.8
20260503190015 69 281 10.0 15.0 0.00 0.00 0.00 26 1012.9
20260503184514 68 273 5.0 15.0 0.00 0.00 0.00 27 1013.2
20260503183019 68 270 5.0 13.0 0.00 0.00 0.00 27 1013.5
20260503181504 68 267 8.0 18.0 0.00 0.00 0.00 28 1013.8
20260503180010 67 262 6.0 17.0 0.00 0.00 0.00 28 1014.1
20260503174509 67 294 9.0 16.0 0.00 0.00 0.00 30 1014.2
20260503173017 66 268 6.0 17.0 0.00 0.00 0.00 28 1014.4
20260503171532 66 263 11.0 18.0 0.00 0.00 0.00 29 1014.7